FW9313 Weather Reports


time (UTC)temp
C
wind
direction
speed
KPH
gust
KPH
rain 1hr
cm
rain 24hr
cm
rain mn
cm
humidity
%
barometer
mb
20260502163115 25 248 1.6 3.2 0.00 0.00 0.00 44 1010.3
20260502162031 25 0.0 0.0 0.00 0.00 0.00 45 1010.5
20260502161033 25 68 1.6 1.6 0.00 0.00 0.00 45 1010.6
20260502151017 25 270 0.0 1.6 0.00 0.00 0.00 44 1011.3
20260502150105 25 0.0 0.0 0.00 0.00 0.00 43 1011.4
20260502123044 26 233 3.2 4.8 0.00 0.00 0.00 40 1012.7
20260502122046 26 244 4.8 8.0 0.00 0.00 0.00 41 1012.8
20260502121042 26 274 3.2 6.4 0.00 0.00 0.00 41 1012.9
20260502115057 25 0.0 0.0 0.00 0.00 0.00 41 1013.1
20260502114029 25 225 0.0 1.6 0.00 0.00 0.00 42 1013.2
20260502113029 24 208 1.6 3.2 0.00 0.00 0.00 42 1013.3
20260502112027 23 0.0 0.0 0.00 0.00 0.00 42 1013.4
20260502111030 23 181 1.6 3.2 0.00 0.00 0.00 41 1013.4
20260502110024 23 293 1.6 1.6 0.00 0.00 0.00 40 1013.5
20260502105025 23 0.0 0.0 0.00 0.00 0.00 39 1013.6
20260502104047 23 0.0 0.0 0.00 0.00 0.00 38 1013.7
20260502103044 23 239 6.4 8.0 0.00 0.00 0.00 37 1013.7
20260502102038 24 68 0.0 1.6 0.00 0.00 0.00 37 1013.6
20260502101055 25 248 0.0 3.2 0.00 0.00 0.00 38 1013.7
20260502091031 25 0.0 0.0 0.00 0.00 0.00 33 1014.0
20260502071031 23 248 1.6 4.8 0.00 0.00 0.00 39 1014.4
20260502070050 22 270 1.6 3.2 0.00 0.00 0.00 43 1014.5
20260502065031 19 0.0 0.0 0.00 0.00 0.00 48 1014.5
20260502064023 16 0.0 0.0 0.00 0.00 0.00 52 1014.5
20260502063030 15 0.0 0.0 0.00 0.00 0.00 53 1014.4
20260502062025 14 0.0 0.0 0.00 0.00 0.00 54 1014.3
20260502061025 13 248 0.0 1.6 0.00 0.00 0.00 54 1014.4
20260502060100 13 0.0 0.0 0.00 0.00 0.00 54 1014.4
20260502055044 13 293 0.0 1.6 0.00 0.00 0.00 54 1014.6
20260502054047 12 0.0 0.0 0.00 0.00 0.00 54 1014.5
20260502053044 12 0.0 0.0 0.00 0.00 0.00 54 1014.6
20260502052044 12 270 1.6 1.6 0.00 0.00 0.00 54 1014.5
20260502051038 12 257 3.2 4.8 0.00 0.00 0.00 54 1014.4
20260502050038 12 248 0.0 1.6 0.00 0.00 0.00 54 1014.4
20260502045024 12 293 0.0 1.6 0.00 0.00 0.00 53 1014.5
20260502044024 12 0.0 0.0 0.00 0.00 0.00 53 1014.6
20260502043048 12 248 1.6 1.6 0.00 0.00 0.00 52 1014.7
20260502042039 12 293 0.0 1.6 0.00 0.00 0.00 52 1014.7
20260502041019 12 0.0 0.0 0.00 0.00 0.00 52 1014.7
20260502040042 12 0.0 0.0 0.00 0.00 0.00 51 1014.9
20260502035044 12 0.0 0.0 0.00 0.00 0.00 51 1014.9
20260502034047 12 293 0.0 1.6 0.00 0.00 0.00 50 1015.0
20260502033046 12 270 1.6 3.2 0.00 0.00 0.00 50 1014.9
20260502032043 12 0.0 0.0 0.00 0.00 0.00 50 1015.0
20260502031040 12 0.0 0.0 0.00 0.00 0.00 50 1015.1
20260502030036 13 277 1.6 1.6 0.00 0.00 0.00 49 1015.2
20260502025029 13 0.0 0.0 0.00 0.00 0.00 49 1015.2
20260502024030 13 0.0 0.0 0.00 0.00 0.00 49 1015.2
20260502023030 13 270 1.6 3.2 0.00 0.00 0.00 48 1015.3
20260502022033 13 293 0.0 1.6 0.00 0.00 0.00 48 1015.4
20260502021029 13 0.0 0.0 0.00 0.00 0.00 48 1015.4
20260502020024 13 248 1.6 3.2 0.00 0.00 0.00 48 1015.5
20260502015109 13 0.0 0.0 0.00 0.00 0.00 47 1015.6
20260502014041 13 203 0.0 1.6 0.00 0.00 0.00 47 1015.7
20260502013030 13 293 0.0 1.6 0.00 0.00 0.00 46 1015.9
20260502012049 13 293 0.0 1.6 0.00 0.00 0.00 46 1016.0
20260502011021 14 0.0 0.0 0.00 0.00 0.00 45 1016.0
20260502010305 14 0.0 0.0 0.00 0.00 0.00 45 1016.1
20260502005022 14 270 0.0 1.6 0.00 0.00 0.00 45 1016.2
20260502004044 15 270 0.0 1.6 0.00 0.00 0.00 45 1016.3
20260502003045 15 270 0.0 1.6 0.00 0.00 0.00 44 1016.4
20260502002036 15 270 0.0 1.6 0.00 0.00 0.00 44 1016.4
20260502001034 15 0.0 0.0 0.00 0.00 0.00 44 1016.5
20260502000031 15 0.0 0.0 0.00 0.00 0.00 44 1016.6
20260501235024 15 0.0 0.0 0.00 0.00 0.00 43 1016.7
20260501234049 15 0.0 0.0 0.00 0.00 0.00 43 1016.7
20260501233045 15 0.0 0.0 0.00 0.00 0.00 42 1016.7
20260501232130 15 0.0 0.0 0.00 0.00 0.00 42 1016.7
20260501231040 15 0.0 0.0 0.00 0.00 0.00 42 1016.8
20260501230045 16 0.0 0.0 0.00 0.00 0.00 41 1016.8
20260501225118 16 0.0 0.0 0.00 0.00 0.00 41 1016.9
20260501224036 16 248 0.0 1.6 0.00 0.00 0.00 41 1016.9
20260501223050 16 0.0 0.0 0.00 0.00 0.00 41 1017.0
20260501222030 16 0.0 0.0 0.00 0.00 0.00 41 1017.0
20260501221031 16 0.0 0.0 0.00 0.00 0.00 41 1017.1
20260501220026 16 0.0 0.0 0.00 0.00 0.00 41 1017.1
20260501215024 16 0.0 0.0 0.00 0.00 0.00 41 1017.2
20260501214022 16 0.0 0.0 0.00 0.00 0.00 41 1017.2
20260501213018 16 0.0 0.0 0.00 0.00 0.00 41 1017.2
20260501212023 16 0.0 0.0 0.00 0.00 0.00 41 1017.2
20260501211045 16 0.0 0.0 0.00 0.00 0.00 41 1017.2
20260501210022 16 0.0 0.0 0.00 0.00 0.00 40 1017.3
20260501205019 17 0.0 0.0 0.00 0.00 0.00 40 1017.3
20260501204038 17 0.0 0.0 0.00 0.00 0.00 40 1017.4
20260501203036 17 0.0 0.0 0.00 0.00 0.00 39 1017.4
20260501202038 17 0.0 0.0 0.00 0.00 0.00 38 1017.5
20260501201037 18 0.0 0.0 0.00 0.00 0.00 38 1017.5
20260501200029 18 0.0 0.0 0.00 0.00 0.00 37 1017.5
20260501195031 19 0.0 0.0 0.00 0.00 0.00 36 1017.4
20260501194019 20 0.0 0.0 0.00 0.00 0.00 35 1017.4
20260501193041 20 0.0 0.0 0.00 0.00 0.00 34 1017.3
20260501192115 21 0.0 0.0 0.00 0.00 0.00 33 1017.3
20260501191056 21 0.0 0.0 0.00 0.00 0.00 33 1017.3
20260501190037 21 0.0 0.0 0.00 0.00 0.00 32 1017.3
20260501185037 22 261 1.6 3.2 0.00 0.00 0.00 31 1017.3
20260501184033 22 293 0.0 1.6 0.00 0.00 0.00 31 1017.3
20260501183035 22 270 0.0 3.2 0.00 0.00 0.00 30 1017.3
20260501182028 23 301 1.6 1.6 0.00 0.00 0.00 29 1017.2
20260501181031 23 293 0.0 1.6 0.00 0.00 0.00 29 1017.2
20260501180028 23 286 1.6 3.2 0.00 0.00 0.00 28 1017.1
20260501175025 24 248 0.0 3.2 0.00 0.00 0.00 28 1017.1
20260501174024 25 270 1.6 3.2 0.00 0.00 0.00 27 1017.1
20260501173019 25 270 0.0 3.2 0.00 0.00 0.00 27 1017.1
20260501172046 26 291 1.6 3.2 0.00 0.00 0.00 26 1017.1
20260501171106 26 253 9.7 14.5 0.00 0.00 0.00 26 1017.2
20260501170047 26 284 9.7 14.5 0.00 0.00 0.00 26 1017.3
20260501165045 26 315 1.6 3.2 0.00 0.00 0.00 26 1017.5
20260501164036 26 315 1.6 3.2 0.00 0.00 0.00 26 1017.6